[[{"header":{"parameterUnit":"m.s-1","parameterCategory":1,"la1":30.2991,"la2":30.254,"lo1":-89.0895,"lo2":-89.0444,"dy":0.0017,"dx":0.0017,"nx":28,"ny":28,"refTime":"2025-07-24T03:00:00:Z","depth":0,"parameterNumber":2,"parameterNumberName":"U-component_of_WINDS"},"data":[0,0,0,0,0,0,0,0,0,0,0,0,0,0,0,0,0,0,0,0,0,0,0,0,0,0,0,0,0,0,0,0,0,0,0,0,0,0,0,0,0,0,0,0,0,0,0,0,0,0,0,0,0,0,0,0,0,0,-1.5411,-1.5411,0,-1.5422,-1.5422,-1.5422,-1.5387,-1.5386,-1.5385,-1.5384,-1.5397,-1.5399,-1.54,0,0,0,0,0,0,0,0,0,0,0,0,0,-1.5361,-1.5362,-1.5411,-1.5411,-1.5411,-1.5422,-1.5422,-1.5422,-1.5387,-1.5386,-1.5385,-1.5384,-1.5397,-1.5399,-1.54,0,0,0,0,0,0,0,0,0,0,0,0,0,-1.5378,-1.5362,-1.5411,-1.5395,-1.5394,-1.5422,-1.5422,-1.5422,-1.5388,-1.5386,-1.5385,-1.5383,-1.5396,-1.5398,-1.54,-1.5445,0,0,-1.5407,-1.5407,0,0,0,0,0,0,0,0,-1.5377,-1.538,-1.5397,-1.5396,-1.5395,-1.5401,-1.5409,-1.543,-1.5388,-1.539,-1.5384,-1.5382,-1.54,-1.5402,-1.5407,-1.5445,-1.5446,-1.5407,-1.5408,-1.5409,-1.5409,0,0,0,0,0,0,0,-1.5376,-1.5379,-1.5415,-1.5398,-1.5396,-1.5388,-1.5388,-1.5413,-1.5404,-1.539,-1.5387,-1.5389,-1.5399,-1.5406,-1.5407,-1.5446,-1.5407,-1.5408,-1.541,-1.5411,-1.5518,-1.552,0,0,0,0,0,0,-1.5377,-1.5379,-1.5415,-1.5416,-1.5382,-1.539,-1.5391,-1.5401,-1.5404,-1.5402,-1.539,-1.5387,-1.5403,-1.5405,-1.5408,-1.5457,-1.5409,-1.5411,-1.5412,-1.5516,-1.5518,-1.552,0,0,0,0,0,0,-1.5376,-1.538,-1.5414,-1.5396,-1.54,-1.5392,-1.5404,-1.5402,-1.5408,-1.5404,-1.5402,-1.5398,-1.5402,-1.5405,-1.5435,-1.5457,-1.5412,-1.5413,-1.5515,-1.5517,-1.5519,-1.5559,0,0,0,0,0,0,-1.5374,-1.538,-1.5397,-1.5397,-1.5401,-1.5441,-1.5406,-1.5403,-1.5412,-1.5408,-1.5411,-1.541,-1.5401,-1.5432,-1.5437,-1.5459,-1.5415,-1.5512,-1.5516,-1.5519,-1.5555,-1.5562,-1.5568,0,0,0,0,0,-1.5373,-1.5409,-1.5398,-1.5402,-1.5422,-1.5443,-1.5445,-1.5433,-1.5414,-1.543,-1.5427,-1.541,-1.5455,-1.5436,-1.5441,-1.5464,-1.5511,-1.5515,-1.5518,-1.5552,-1.5561,-1.5568,0,0,0,0,0,0,-1.5412,-1.5408,-1.5396,-1.5433,-1.5438,-1.5437,-1.5457,-1.5443,-1.5454,-1.545,-1.5435,-1.5436,-1.5469,-1.547,-1.5449,-1.5506,-1.5479,-1.5484,-1.5504,-1.5512,-1.5518,-1.5516,-1.5417,0,0,0,0,0,-1.5425,-1.5442,-1.5438,-1.5471,-1.5474,-1.5465,-1.5474,-1.5464,-1.5469,-1.5471,-1.5471,-1.5477,-1.5492,-1.5502,-1.5516,-1.5556,-1.5555,-1.5574,-1.5581,-1.5586,-1.559,-1.5609,-1.5616,-1.5532,-1.5532,-1.5532,0,0,-1.5452,-1.5452,-1.5464,-1.5479,-1.5482,-1.5499,-1.5467,-1.5488,-1.5501,-1.5475,-1.5502,-1.5502,-1.5508,-1.5542,-1.5557,-1.5544,-1.5613,-1.5591,-1.5595,-1.5596,-1.5613,-1.5621,-1.5628,-1.5535,-1.5535,-1.5534,0,0,-1.551,-1.5512,-1.5539,-1.5542,-1.5546,-1.5539,-1.5546,-1.5546,-1.5544,-1.5571,-1.5552,-1.5567,-1.5594,-1.5598,-1.5604,-1.5661,-1.5645,-1.5666,-1.5699,-1.5717,-1.5724,-1.5729,-1.5748,-1.5755,-1.567,-1.5671,-1.5671,0,-1.5543,-1.5568,-1.5554,-1.5575,-1.5581,-1.5558,-1.5584,-1.5588,-1.5597,-1.5602,-1.5587,-1.5618,-1.5621,-1.5654,-1.5668,-1.5674,-1.568,-1.5665,-1.5724,-1.573,-1.5735,-1.5752,-1.5759,-1.5673,-1.5673,-1.5672,-1.5672,0,-1.5607,-1.5625,-1.5646,-1.5653,-1.5662,-1.5686,-1.5675,-1.5686,-1.5675,-1.567,-1.5697,-1.5699,-1.5712,-1.572,-1.571,-1.5751,-1.5743,-1.5726,-1.5699,-1.5745,-1.5761,-1.5768,-1.5676,-1.5675,-1.5675,-1.5674,0,0,-1.569,-1.5688,-1.5696,-1.5697,-1.57,-1.5713,-1.5735,-1.5747,-1.5755,-1.5762,-1.5779,-1.5802,-1.5786,-1.5792,-1.5783,-1.58,-1.5842,-1.5781,-1.578,-1.579,-1.5885,-1.5895,-1.5903,-1.5832,-1.5833,-1.5834,-1.5883,0,-1.5744,-1.5781,-1.5768,-1.5805,-1.582,-1.5797,-1.5816,-1.582,-1.5816,-1.5828,-1.5824,-1.5839,-1.5818,-1.5822,-1.5837,-1.5833,-1.586,-1.583,-1.5846,-1.5847,-1.5843,-1.5912,-1.5924,-1.597,-1.589,-1.5891,-1.5891,0,-1.5813,-1.582,-1.5858,-1.5855,-1.5861,-1.5879,-1.5886,-1.5899,-1.5902,-1.5898,-1.5904,-1.5891,-1.5912,-1.5886,-1.5914,-1.5894,-1.59,-1.5899,-1.59,-1.59,-1.5871,-1.5911,-1.5985,-1.5991,-1.5902,-1.5901,-1.59,0,-1.5866,-1.5886,-1.591,-1.5913,-1.5912,-1.5924,-1.5924,-1.5925,-1.5932,-1.5939,-1.5943,-1.5954,-1.5959,-1.5968,-1.5957,-1.594,-1.5986,-1.596,-1.5982,-1.5982,-1.5991,-1.5991,-1.6065,-1.5999,-1.5999,-1.5999,-1.5999,0,-1.5926,-1.595,-1.5933,-1.5949,-1.5974,-1.5959,-1.5985,-1.5983,-1.5984,-1.5997,-1.598,-1.5993,-1.598,-1.5992,-1.5985,-1.6007,-1.6011,-1.6007,-1.6004,-1.6007,-1.6007,-1.601,-1.6005,-1.6001,-1.6001,-1.6,-1.6,0,-1.5989,-1.598,-1.6004,-1.6,-1.6,-1.6018,-1.6014,-1.6028,-1.6022,-1.604,-1.6043,-1.6035,-1.6048,-1.6039,-1.6053,-1.6048,-1.6077,-1.6071,-1.6075,-1.6073,-1.6094,-1.6092,-1.6171,-1.618,-1.6111,-1.6112,-1.6112,0,-1.6027,-1.6045,-1.6042,-1.6049,-1.6049,-1.6062,-1.6068,-1.6055,-1.6062,-1.6066,-1.6078,-1.609,-1.6098,-1.612,-1.6115,-1.6125,-1.6118,-1.6145,-1.6119,-1.6121,-1.6115,-1.6113,-1.6114,-1.615,-1.6151,-1.6151,-1.6152,0,-1.6096,-1.6089,-1.6098,-1.6106,-1.6113,-1.6119,-1.6123,-1.613,-1.6116,-1.6125,-1.6137,-1.6144,-1.6156,-1.6167,-1.6175,-1.6176,-1.6161,-1.616,-1.6165,-1.6167,-1.6168,-1.6165,-1.6087,-1.6158,-1.6157,-1.6157,-1.6157,-1.6156,-1.6145,-1.6159,-1.6158,-1.6168,-1.6169,-1.6173,-1.6184,-1.618,-1.6189,-1.6198,-1.619,-1.6204,-1.6205,-1.6214,-1.6216,-1.6227,-1.6216,-1.6224,-1.6226,-1.6227,-1.6229,-1.6168,-1.6229,-1.6229,-1.6229,-1.6228,-1.6228,0,-1.621,-1.6208,-1.6218,-1.6223,-1.6231,-1.6216,-1.6219,-1.6227,-1.6239,-1.6241,-1.6249,-1.6262,-1.6272,-1.6268,-1.6277,-1.6286,-1.628,-1.6289,-1.6287,-1.6287,-1.624,-1.6233,-1.6294,-1.6294,-1.6294,-1.6294,-1.6294,-1.6294,-1.6245,-1.6265,-1.6259,-1.6279,-1.6278,-1.629,-1.6293,-1.6296,-1.6297,-1.6312,-1.632,-1.6317,-1.6316,-1.6324,-1.6333,-1.6331,-1.6334,-1.6345,-1.6341,-1.6297,-1.6291,-1.6284,-1.6278,-1.6347,-1.6347,-1.6387,-1.6387,-1.6388]},{"header":{"parameterUnit":"m.s-1","parameterCategory":1,"la1":30.2991,"la2":30.254,"lo1":-89.0895,"lo2":-89.0444,"dy":0.0017,"dx":0.0017,"nx":28,"ny":28,"refTime":"2025-07-24T03:00:00:Z","depth":0,"parameterNumber":3,"parameterNumberName":"V-component_of_WINDS"},"data":[0,0,0,0,0,0,0,0,0,0,0,0,0,0,0,0,0,0,0,0,0,0,0,0,0,0,0,0,0,0,0,0,0,0,0,0,0,0,0,0,0,0,0,0,0,0,0,0,0,0,0,0,0,0,0,0,0,0,1.0493,1.0494,0,1.0624,1.0625,1.0627,1.0662,1.0661,1.066,1.066,1.079,1.0794,1.0798,0,0,0,0,0,0,0,0,0,0,0,0,0,1.027,1.0274,1.0493,1.0494,1.0496,1.0623,1.0625,1.0627,1.0662,1.0661,1.066,1.0659,1.0788,1.0793,1.0798,0,0,0,0,0,0,0,0,0,0,0,0,0,1.038,1.0275,1.0492,1.0529,1.0534,1.0623,1.0625,1.0627,1.0662,1.0661,1.066,1.0659,1.0787,1.0793,1.0799,1.086,0,0,1.0818,1.0821,0,0,0,0,0,0,0,0,1.0374,1.0389,1.0522,1.0527,1.0532,1.0625,1.0595,1.0705,1.0663,1.0613,1.066,1.0658,1.0736,1.0746,1.0773,1.0866,1.0872,1.0819,1.0822,1.0825,1.0827,0,0,0,0,0,0,0,1.0366,1.0383,1.0544,1.0524,1.053,1.0538,1.0552,1.0616,1.0679,1.0618,1.062,1.0636,1.0738,1.0767,1.0776,1.0874,1.0818,1.0824,1.0828,1.083,1.1024,1.1026,0,0,0,0,0,0,1.0353,1.0377,1.054,1.0548,1.0449,1.0543,1.0559,1.0596,1.0679,1.069,1.0636,1.0637,1.0757,1.0769,1.0781,1.0859,1.0825,1.0831,1.0835,1.1023,1.1025,1.1026,0,0,0,0,0,0,1.0348,1.0367,1.0535,1.0463,1.0485,1.0548,1.059,1.06,1.0628,1.0693,1.0704,1.0654,1.0756,1.0772,1.0841,1.0864,1.0834,1.0839,1.1021,1.1024,1.1025,1.1014,0,0,0,0,0,0,1.0342,1.0365,1.039,1.0464,1.0489,1.0593,1.0591,1.0603,1.064,1.0641,1.0713,1.0723,1.0757,1.0831,1.0847,1.0872,1.0844,1.102,1.1022,1.1025,1.1012,1.1015,1.1018,0,0,0,0,0,1.0334,1.038,1.0391,1.0411,1.0521,1.0595,1.0609,1.0648,1.0641,1.0666,1.0708,1.0721,1.0859,1.0838,1.0856,1.0883,1.1018,1.1022,1.1025,1.1011,1.1015,1.1017,0,0,0,0,0,0,1.0306,1.0391,1.0403,1.0476,1.0528,1.06,1.0633,1.065,1.0704,1.0703,1.0747,1.0763,1.0829,1.0863,1.0838,1.0947,1.0938,1.0945,1.0922,1.0926,1.0928,1.0919,1.085,0,0,0,0,0,1.0309,1.0362,1.0433,1.049,1.0516,1.057,1.0603,1.0629,1.0684,1.0706,1.0752,1.0804,1.0859,1.0894,1.0949,1.1017,1.1033,1.1045,1.1047,1.1049,1.1055,1.1094,1.11,1.1037,1.1037,1.1037,0,0,1.0314,1.0367,1.0398,1.0486,1.0529,1.0583,1.0588,1.0644,1.0684,1.0714,1.0782,1.0818,1.0879,1.0948,1.098,1.0978,1.1076,1.1053,1.1054,1.1059,1.1098,1.1103,1.1109,1.1039,1.1038,1.1038,0,0,1.0351,1.0397,1.045,1.0494,1.056,1.0596,1.0609,1.0679,1.0705,1.0774,1.0797,1.0845,1.0939,1.0982,1.1015,1.107,1.1084,1.1086,1.11,1.1137,1.1142,1.1147,1.1166,1.1173,1.1092,1.1092,1.1092,0,1.0349,1.0433,1.0474,1.0531,1.0568,1.0599,1.0652,1.0692,1.0772,1.0797,1.0794,1.0913,1.0956,1.1036,1.1049,1.1076,1.1091,1.1078,1.1139,1.1144,1.1149,1.1168,1.1175,1.1091,1.1091,1.1091,1.1091,0,1.0427,1.0484,1.0519,1.0597,1.0639,1.0693,1.0742,1.0779,1.0801,1.0837,1.0907,1.096,1.1026,1.1047,1.1068,1.113,1.1126,1.113,1.1123,1.1154,1.1172,1.118,1.1091,1.1091,1.1091,1.1091,0,0,1.045,1.0552,1.0564,1.06,1.0676,1.072,1.0776,1.0842,1.0873,1.0927,1.0974,1.1053,1.1058,1.1096,1.1123,1.1156,1.1196,1.1156,1.1158,1.1161,1.1267,1.1263,1.1271,1.1206,1.1207,1.1209,1.1261,0,1.0497,1.0599,1.0639,1.0721,1.0774,1.0805,1.0853,1.0904,1.0939,1.0989,1.1027,1.1083,1.1085,1.1108,1.1142,1.1183,1.1217,1.118,1.1249,1.1251,1.1233,1.1281,1.1277,1.1324,1.1269,1.127,1.1271,0,1.0565,1.0622,1.071,1.078,1.0804,1.0847,1.0911,1.0958,1.1017,1.104,1.1084,1.1108,1.1167,1.1156,1.1237,1.1211,1.1241,1.1266,1.1268,1.1276,1.1263,1.1289,1.134,1.1347,1.1283,1.1282,1.1281,0,1.0573,1.0672,1.0737,1.0767,1.0851,1.088,1.0916,1.0974,1.1011,1.1066,1.1091,1.1151,1.1184,1.123,1.127,1.1259,1.1347,1.134,1.1367,1.1366,1.1384,1.1383,1.1441,1.1404,1.1404,1.1404,1.1404,0,1.0622,1.0674,1.0742,1.0783,1.0843,1.0887,1.0945,1.0983,1.1034,1.1081,1.1111,1.1154,1.1205,1.1255,1.1286,1.1348,1.1363,1.1382,1.139,1.138,1.1377,1.14,1.1398,1.1406,1.1406,1.1405,1.1405,0,1.064,1.0688,1.0762,1.0836,1.0855,1.0896,1.0959,1.0998,1.1035,1.1095,1.1112,1.1169,1.1229,1.1274,1.1351,1.1373,1.1439,1.1447,1.1419,1.1423,1.1448,1.1445,1.1523,1.1535,1.149,1.1491,1.1491,0,1.0668,1.071,1.0788,1.0823,1.0859,1.0915,1.0953,1.0999,1.1038,1.1108,1.1139,1.1202,1.1255,1.1349,1.1397,1.1456,1.1466,1.1489,1.1475,1.1463,1.1466,1.1463,1.1467,1.1491,1.1491,1.1491,1.1491,0,1.0712,1.0734,1.0789,1.0853,1.0899,1.0951,1.1004,1.103,1.1085,1.1127,1.119,1.1231,1.1311,1.1372,1.1437,1.1472,1.1491,1.1496,1.1505,1.1495,1.1477,1.1487,1.1425,1.1494,1.1493,1.1493,1.1493,1.1493,1.0736,1.0775,1.0837,1.0897,1.0942,1.0991,1.1032,1.1075,1.1129,1.1199,1.1222,1.1287,1.1344,1.1433,1.1469,1.152,1.1519,1.1533,1.1537,1.1539,1.1539,1.147,1.1532,1.1532,1.1532,1.1532,1.1532,0,1.0782,1.0823,1.0879,1.0952,1.1,1.1015,1.1074,1.1113,1.117,1.1223,1.1275,1.1347,1.1407,1.146,1.1522,1.1552,1.1562,1.1567,1.1565,1.1573,1.1535,1.1521,1.1558,1.1558,1.1558,1.1558,1.1558,1.1558,1.0811,1.0878,1.0907,1.0995,1.1036,1.1101,1.1134,1.1178,1.1221,1.1301,1.1352,1.1386,1.1439,1.1506,1.1561,1.1575,1.1596,1.1599,1.1615,1.1579,1.1575,1.1572,1.1559,1.1603,1.1603,1.1648,1.1648,1.1649]}]]